TimeCDT,TemperatureF,Dew PointF,Humidity,Sea Level PressureIn,VisibilityMPH,Wind Direction,Wind SpeedMPH,Gust SpeedMPH,PrecipitationIn,Events,Conditions,WindDirDegrees,DateUTC
12:33 AM,37.4,28.4,70,30.23,10.0,West,10.4,-,N/A,,Overcast,280,2012-10-26 05:33:00
12:53 AM,37.4,28.4,70,30.23,10.0,West,12.7,-,N/A,,Overcast,280,2012-10-26 05:53:00
1:13 AM,35.6,28.4,75,30.23,10.0,WNW,12.7,-,N/A,,Overcast,290,2012-10-26 06:13:00
1:33 AM,35.6,28.4,75,30.23,10.0,West,12.7,-,N/A,,Mostly Cloudy,280,2012-10-26 06:33:00
1:53 AM,35.6,28.4,75,30.24,10.0,West,11.5,-,N/A,,Mostly Cloudy,280,2012-10-26 06:53:00
2:13 AM,35.6,28.4,75,30.24,10.0,West,10.4,-,N/A,,Mostly Cloudy,280,2012-10-26 07:13:00
2:33 AM,35.6,28.4,75,30.24,10.0,WNW,11.5,-,N/A,,Clear,290,2012-10-26 07:33:00
2:53 AM,35.6,28.4,75,30.25,10.0,West,10.4,-,N/A,,Clear,280,2012-10-26 07:53:00
3:33 AM,33.8,28.4,81,30.25,10.0,West,9.2,-,N/A,,Clear,280,2012-10-26 08:33:00
3:53 AM,33.8,28.4,81,30.26,10.0,West,8.1,-,N/A,,Clear,280,2012-10-26 08:53:00
4:12 AM,33.8,28.4,81,30.26,10.0,West,5.8,-,N/A,,Clear,270,2012-10-26 09:12:00
4:33 AM,33.8,28.4,81,30.27,10.0,West,8.1,-,N/A,,Clear,270,2012-10-26 09:33:00
4:53 AM,33.8,28.4,81,30.27,10.0,West,11.5,-,N/A,,Clear,280,2012-10-26 09:53:00
5:33 AM,33.8,26.6,75,30.29,10.0,West,11.5,-,N/A,,Clear,280,2012-10-26 10:33:00
5:53 AM,33.8,26.6,75,30.30,10.0,West,10.4,-,N/A,,Clear,280,2012-10-26 10:53:00
6:12 AM,32.0,26.6,80,30.31,10.0,West,9.2,-,N/A,,Clear,280,2012-10-26 11:12:00
6:33 AM,32.0,26.6,80,30.32,10.0,West,9.2,-,N/A,,Clear,280,2012-10-26 11:33:00
6:53 AM,33.8,26.6,75,30.33,10.0,WNW,10.4,-,N/A,,Mostly Cloudy,290,2012-10-26 11:53:00
7:13 AM,33.8,26.6,75,30.33,10.0,WNW,9.2,-,N/A,,Overcast,290,2012-10-26 12:13:00
7:33 AM,33.8,26.6,75,30.34,10.0,West,8.1,-,N/A,,Overcast,280,2012-10-26 12:33:00
7:53 AM,35.6,26.6,70,30.34,10.0,WNW,13.8,-,N/A,,Overcast,290,2012-10-26 12:53:00
8:13 AM,35.6,26.6,70,30.36,10.0,West,8.1,-,N/A,,Overcast,280,2012-10-26 13:13:00
8:33 AM,35.6,28.4,75,30.37,10.0,WNW,8.1,-,N/A,,Overcast,300,2012-10-26 13:33:00
8:52 AM,35.6,28.4,75,30.37,10.0,WNW,8.1,-,N/A,,Overcast,290,2012-10-26 13:52:00
9:13 AM,35.6,28.4,75,30.38,10.0,WNW,9.2,-,N/A,,Overcast,290,2012-10-26 14:13:00
9:33 AM,35.6,28.4,75,30.39,10.0,West,6.9,-,N/A,,Overcast,280,2012-10-26 14:33:00
9:52 AM,35.6,28.4,75,30.40,10.0,West,8.1,-,N/A,,Overcast,280,2012-10-26 14:52:00
10:13 AM,37.4,28.4,70,30.40,10.0,WNW,11.5,-,N/A,,Overcast,290,2012-10-26 15:13:00
10:33 AM,37.4,26.6,65,30.40,10.0,WNW,12.7,-,N/A,,Mostly Cloudy,300,2012-10-26 15:33:00
10:52 AM,37.4,26.6,65,30.40,10.0,WNW,9.2,17.3,N/A,,Mostly Cloudy,290,2012-10-26 15:52:00
11:13 AM,37.4,26.6,65,30.39,10.0,WNW,11.5,-,N/A,,Mostly Cloudy,290,2012-10-26 16:13:00
11:33 AM,37.4,26.6,65,30.40,10.0,West,12.7,-,N/A,,Mostly Cloudy,280,2012-10-26 16:33:00
11:52 AM,39.2,26.6,61,30.39,10.0,West,13.8,-,N/A,,Mostly Cloudy,280,2012-10-26 16:52:00
12:13 PM,39.2,24.8,56,30.39,10.0,WNW,17.3,-,N/A,,Mostly Cloudy,290,2012-10-26 17:13:00
12:33 PM,39.2,24.8,56,30.39,10.0,WNW,16.1,-,N/A,,Mostly Cloudy,290,2012-10-26 17:33:00
12:52 PM,39.2,26.6,61,30.38,10.0,WNW,15.0,-,N/A,,Mostly Cloudy,290,2012-10-26 17:52:00
1:13 PM,39.2,26.6,61,30.38,10.0,West,10.4,-,N/A,,Scattered Clouds,280,2012-10-26 18:13:00
1:33 PM,39.2,24.8,56,30.38,10.0,West,12.7,19.6,N/A,,Mostly Cloudy,280,2012-10-26 18:33:00
1:52 PM,39.2,24.8,56,30.37,10.0,West,11.5,-,N/A,,Overcast,280,2012-10-26 18:52:00
2:13 PM,39.2,24.8,56,30.37,10.0,West,12.7,18.4,N/A,,Overcast,280,2012-10-26 19:13:00
2:33 PM,39.2,24.8,56,30.37,10.0,West,12.7,-,N/A,,Overcast,280,2012-10-26 19:33:00
2:52 PM,39.2,26.6,61,30.36,10.0,WNW,16.1,-,N/A,,Overcast,290,2012-10-26 19:52:00
3:13 PM,39.2,26.6,61,30.36,10.0,WNW,13.8,-,N/A,,Overcast,300,2012-10-26 20:13:00
3:33 PM,39.2,24.8,56,30.36,10.0,West,16.1,-,N/A,,Overcast,280,2012-10-26 20:33:00
3:53 PM,39.2,26.6,61,30.36,10.0,West,11.5,-,N/A,,Overcast,280,2012-10-26 20:53:00
4:13 PM,39.2,24.8,56,30.36,10.0,West,11.5,-,N/A,,Overcast,270,2012-10-26 21:13:00
4:32 PM,39.2,26.6,61,30.36,10.0,West,16.1,20.7,N/A,,Overcast,270,2012-10-26 21:32:00
4:53 PM,39.2,26.6,61,30.36,10.0,West,11.5,-,N/A,,Overcast,280,2012-10-26 21:53:00
5:13 PM,39.2,26.6,61,30.36,10.0,West,10.4,-,N/A,,Overcast,270,2012-10-26 22:13:00
5:33 PM,37.4,26.6,65,30.36,10.0,West,9.2,-,N/A,,Overcast,270,2012-10-26 22:33:00
5:53 PM,37.4,26.6,65,30.36,10.0,West,11.5,-,N/A,,Overcast,280,2012-10-26 22:53:00
6:13 PM,37.4,26.6,65,30.36,10.0,West,11.5,-,N/A,,Overcast,280,2012-10-26 23:13:00
6:32 PM,37.4,26.6,65,30.36,10.0,West,10.4,-,N/A,,Overcast,280,2012-10-26 23:32:00
6:53 PM,37.4,26.6,65,30.37,10.0,West,9.2,-,N/A,,Overcast,280,2012-10-26 23:53:00
7:13 PM,37.4,28.4,70,30.36,10.0,West,8.1,-,N/A,,Overcast,280,2012-10-27 00:13:00
7:32 PM,37.4,28.4,70,30.37,10.0,West,10.4,-,N/A,,Overcast,280,2012-10-27 00:32:00
7:53 PM,35.6,28.4,75,30.37,10.0,West,8.1,-,N/A,,Overcast,270,2012-10-27 00:53:00
8:13 PM,35.6,28.4,75,30.37,10.0,West,6.9,-,N/A,,Overcast,260,2012-10-27 01:13:00
8:32 PM,35.6,28.4,75,30.37,10.0,West,4.6,-,N/A,,Overcast,270,2012-10-27 01:32:00
8:53 PM,35.6,28.4,75,30.36,10.0,West,5.8,-,N/A,,Overcast,270,2012-10-27 01:53:00
9:13 PM,35.6,28.4,75,30.37,10.0,West,6.9,-,N/A,,Overcast,270,2012-10-27 02:13:00
9:32 PM,35.6,28.4,75,30.36,10.0,West,5.8,-,N/A,,Overcast,260,2012-10-27 02:32:00
9:53 PM,35.6,28.4,75,30.36,10.0,West,4.6,-,N/A,,Overcast,260,2012-10-27 02:53:00
10:33 PM,33.8,26.6,75,30.36,10.0,West,5.8,-,N/A,,Overcast,260,2012-10-27 03:33:00
10:53 PM,33.8,26.6,75,30.36,10.0,West,4.6,-,N/A,,Overcast,260,2012-10-27 03:53:00
11:13 PM,33.8,26.6,75,30.36,10.0,West,4.6,-,N/A,,Overcast,260,2012-10-27 04:13:00
11:33 PM,33.8,26.6,75,30.36,10.0,West,3.5,-,N/A,,Overcast,260,2012-10-27 04:33:00